| time (UTC) | temp C | wind direction | speed KPH | gust KPH | rain 1hr cm | rain 24hr cm | rain mn cm | humidity % | barometer mb |
| 20260510183348 | 21 | 319 | 9.7 | 17.7 | 0.00 | 0.00 | 0.00 | 70 | 1019.0 |
| 20260510182342 | 22 | 343 | 8.0 | 16.1 | 0.00 | 0.00 | 0.00 | 69 | 1018.8 |
| 20260510181344 | 21 | 321 | 9.7 | 16.1 | 0.00 | 0.00 | 0.00 | 72 | 1018.8 |
| 20260510180341 | 22 | 327 | 8.0 | 16.1 | 0.00 | 0.00 | 0.00 | 72 | 1018.8 |
| 20260510175341 | 22 | 348 | 6.4 | 14.5 | 0.00 | 0.00 | 0.00 | 71 | 1018.8 |
| 20260510174342 | 22 | 26 | 8.0 | 14.5 | 0.00 | 0.00 | 0.00 | 69 | 1018.6 |
| 20260510173341 | 22 | 337 | 4.8 | 12.9 | 0.00 | 0.00 | 0.00 | 70 | 1018.3 |
| 20260510172347 | 22 | 311 | 4.8 | 8.0 | 0.00 | 0.00 | 0.00 | 70 | 1018.4 |
| 20260510171824 | 22 | 284 | 4.8 | 9.7 | 0.00 | 0.00 | 0.00 | 70 | 1018.4 |
| 20260510165340 | 22 | 312 | 4.8 | 9.7 | 0.00 | 0.00 | 0.00 | 68 | 1018.2 |
| 20260510164339 | 22 | 338 | 3.2 | 9.7 | 0.00 | 0.00 | 0.00 | 71 | 1018.0 |
| 20260510163340 | 21 | 338 | 1.6 | 8.0 | 0.00 | 0.00 | 0.00 | 71 | 1018.0 |
| 20260510162339 | 21 | 308 | 3.2 | 9.7 | 0.00 | 0.00 | 0.00 | 73 | 1017.7 |
| 20260510161340 | 21 | 57 | 1.6 | 9.7 | 0.00 | 0.00 | 0.00 | 75 | 1017.4 |
| 20260510160339 | 21 | 55 | 3.2 | 9.7 | 0.00 | 0.00 | 0.00 | 75 | 1017.1 |
| 20260510154337 | 21 | 25 | 1.6 | 9.7 | 0.00 | 0.00 | 0.00 | 76 | 1016.9 |
| 20260510153337 | 20 | 28 | 4.8 | 14.5 | 0.00 | 0.00 | 0.00 | 77 | 1017.0 |
| 20260510152337 | 20 | 355 | 4.8 | 12.9 | 0.00 | 0.00 | 0.00 | 78 | 1016.8 |
| 20260510151338 | 20 | 5 | 3.2 | 8.0 | 0.00 | 0.00 | 0.00 | 78 | 1016.9 |
| 20260510150338 | 20 | 49 | 1.6 | 6.4 | 0.00 | 0.00 | 0.00 | 80 | 1016.8 |
| 20260510145337 | 20 | 16 | 1.6 | 6.4 | 0.00 | 0.00 | 0.00 | 80 | 1016.8 |
| 20260510144337 | 20 | 18 | 3.2 | 9.7 | 0.00 | 0.00 | 0.00 | 80 | 1016.9 |
| 20260510143336 | 19 | 61 | 0.0 | 1.6 | 0.00 | 0.00 | 0.00 | 80 | 1016.8 |
| 20260510142816 | 19 | 36 | 0.0 | 4.8 | 0.00 | 0.00 | 0.00 | 81 | 1017.0 |
| 20260510141335 | 19 | 41 | 1.6 | 6.4 | 0.00 | 0.00 | 0.00 | 80 | 1017.0 |
| 20260510140336 | 19 | 19 | 4.8 | 9.7 | 0.00 | 0.00 | 0.00 | 82 | 1017.1 |
| 20260510134814 | 18 | 335 | 4.8 | 8.0 | 0.00 | 0.00 | 0.00 | 86 | 1017.2 |
| 20260510133809 | 17 | 346 | 0.0 | 3.2 | 0.00 | 0.00 | 0.00 | 88 | 1017.2 |
| 20260510132332 | 17 | 355 | 0.0 | 0.0 | 0.00 | 0.00 | 0.00 | 88 | 1016.9 |
| 20260510131330 | 17 | 355 | 0.0 | 0.0 | 0.00 | 0.00 | 0.00 | 88 | 1016.7 |
| 20260510130332 | 16 | 355 | 0.0 | 0.0 | 0.00 | 0.00 | 0.00 | 88 | 1016.3 |
| 20260510125332 | 16 | 355 | 0.0 | 0.0 | 0.00 | 0.00 | 0.00 | 88 | 1016.1 |
| 20260510124331 | 16 | 355 | 0.0 | 0.0 | 0.00 | 0.00 | 0.00 | 89 | 1016.1 |
| 20260510123330 | 16 | 355 | 0.0 | 1.6 | 0.00 | 0.00 | 0.00 | 89 | 1016.0 |
| 20260510122330 | 15 | 334 | 0.0 | 3.2 | 0.00 | 0.00 | 0.00 | 89 | 1015.7 |
| 20260510121818 | 15 | 334 | 0.0 | 4.8 | 0.00 | 0.00 | 0.00 | 87 | 1015.4 |
| 20260510120330 | 16 | 126 | 0.0 | 3.2 | 0.00 | 0.00 | 0.00 | 86 | 1015.0 |
| 20260510115329 | 16 | 123 | 1.6 | 6.4 | 0.00 | 0.00 | 0.00 | 85 | 1014.8 |
| 20260510114330 | 16 | 38 | 0.0 | 4.8 | 0.00 | 0.00 | 0.00 | 87 | 1014.8 |
| 20260510113329 | 15 | 26 | 3.2 | 4.8 | 0.00 | 0.00 | 0.00 | 88 | 1014.8 |
| 20260510112330 | 15 | 5 | 0.0 | 3.2 | 0.00 | 0.00 | 0.00 | 88 | 1014.7 |
| 20260510111331 | 15 | 355 | 1.6 | 4.8 | 0.00 | 0.00 | 0.00 | 87 | 1014.5 |
| 20260510110328 | 16 | 355 | 0.0 | 3.2 | 0.00 | 0.00 | 0.00 | 85 | 1014.5 |
| 20260510105810 | 16 | 284 | 3.2 | 6.4 | 0.00 | 0.00 | 0.00 | 84 | 1014.4 |
| 20260510104329 | 16 | 344 | 3.2 | 6.4 | 0.00 | 0.00 | 0.00 | 82 | 1014.4 |
| 20260510103328 | 17 | 170 | 4.8 | 9.7 | 0.00 | 0.00 | 0.00 | 81 | 1014.3 |
| 20260510102328 | 17 | 198 | 8.0 | 16.1 | 0.00 | 0.00 | 0.00 | 82 | 1014.3 |
| 20260510101326 | 17 | 222 | 6.4 | 11.3 | 0.00 | 0.00 | 0.00 | 82 | 1014.3 |
| 20260510100326 | 16 | 200 | 3.2 | 12.9 | 0.00 | 0.00 | 0.00 | 85 | 1014.3 |
| 20260510095758 | 16 | 183 | 1.6 | 4.8 | 0.00 | 0.00 | 0.00 | 86 | 1014.2 |
| 20260510094327 | 16 | 326 | 0.0 | 0.0 | 0.00 | 0.00 | 0.00 | 86 | 1014.1 |
| 20260510093325 | 16 | 296 | 0.0 | 0.0 | 0.00 | 0.00 | 0.00 | 85 | 1014.0 |
| 20260510092324 | 16 | 306 | 0.0 | 0.0 | 0.00 | 0.00 | 0.00 | 86 | 1013.6 |
| 20260510091325 | 16 | 27 | 0.0 | 0.0 | 0.00 | 0.00 | 0.00 | 85 | 1012.9 |
| 20260510090320 | 16 | 142 | 0.0 | 0.0 | 0.00 | 0.00 | 0.00 | 83 | 1012.9 |
| 20260510085813 | 16 | 143 | 0.0 | 0.0 | 0.00 | 0.00 | 0.00 | 84 | 1013.4 |
| 20260510084322 | 15 | 164 | 0.0 | 0.0 | 0.00 | 0.00 | 0.00 | 84 | 1013.5 |
| 20260510083809 | 16 | 171 | 0.0 | 0.0 | 0.00 | 0.00 | 0.00 | 82 | 1013.3 |
| 20260510082320 | 16 | 178 | 0.0 | 0.0 | 0.00 | 0.00 | 0.00 | 78 | 1013.5 |
| 20260510081322 | 16 | 126 | 0.0 | 0.0 | 0.00 | 0.00 | 0.00 | 79 | 1013.4 |
| 20260510080321 | 16 | 126 | 0.0 | 0.0 | 0.00 | 0.00 | 0.00 | 80 | 1013.6 |
| 20260510075809 | 15 | 126 | 0.0 | 0.0 | 0.00 | 0.00 | 0.00 | 82 | 1013.5 |
| 20260510074322 | 15 | 355 | 0.0 | 0.0 | 0.00 | 0.00 | 0.00 | 81 | 1013.5 |
| 20260510073320 | 15 | 355 | 0.0 | 0.0 | 0.00 | 0.00 | 0.00 | 81 | 1013.5 |
| 20260510072318 | 15 | 355 | 0.0 | 0.0 | 0.00 | 0.00 | 0.00 | 81 | 1013.2 |
| 20260510071320 | 15 | 355 | 0.0 | 0.0 | 0.00 | 0.00 | 0.00 | 82 | 1013.4 |
| 20260510070319 | 15 | 355 | 0.0 | 0.0 | 0.00 | 0.00 | 0.00 | 82 | 1013.7 |
| 20260510064319 | 15 | 355 | 0.0 | 0.0 | 0.00 | 0.00 | 0.00 | 82 | 1014.0 |
| 20260510063318 | 15 | 355 | 0.0 | 0.0 | 0.00 | 0.00 | 0.00 | 82 | 1014.2 |
| 20260510062320 | 15 | 355 | 0.0 | 0.0 | 0.00 | 0.00 | 0.00 | 80 | 1014.3 |
| 20260510061316 | 16 | 355 | 0.0 | 0.0 | 0.00 | 0.00 | 0.00 | 79 | 1014.4 |
| 20260510060316 | 16 | 355 | 0.0 | 0.0 | 0.00 | 0.00 | 0.00 | 77 | 1014.5 |
| 20260510055809 | 16 | 355 | 0.0 | 0.0 | 0.00 | 0.00 | 0.00 | 77 | 1014.2 |
| 20260510054318 | 16 | 355 | 0.0 | 0.0 | 0.00 | 0.00 | 0.00 | 76 | 1014.0 |
| 20260510053318 | 16 | 355 | 0.0 | 0.0 | 0.00 | 0.00 | 0.00 | 76 | 1014.1 |
| 20260510052318 | 16 | 355 | 0.0 | 0.0 | 0.00 | 0.00 | 0.00 | 76 | 1013.9 |
| 20260510051752 | 16 | 355 | 0.0 | 0.0 | 0.00 | 0.00 | 0.00 | 76 | 1013.7 |
| 20260510050315 | 15 | 355 | 0.0 | 0.0 | 0.00 | 0.00 | 0.00 | 77 | 1013.7 |
| 20260510045309 | 15 | 355 | 0.0 | 0.0 | 0.00 | 0.00 | 0.00 | 79 | 1013.8 |
| 20260510044309 | 15 | 251 | 0.0 | 0.0 | 0.00 | 0.00 | 0.00 | 80 | 1013.4 |
| 20260510043309 | 15 | 234 | 0.0 | 0.0 | 0.00 | 0.00 | 0.00 | 78 | 1013.4 |
| 20260510042308 | 15 | 217 | 0.0 | 0.0 | 0.00 | 0.00 | 0.00 | 79 | 1013.3 |
| 20260510041308 | 15 | 217 | 0.0 | 0.0 | 0.00 | 0.00 | 0.00 | 76 | 1013.3 |
| 20260510040308 | 16 | 159 | 0.0 | 0.0 | 0.00 | 0.00 | 0.00 | 75 | 1013.3 |
| 20260510035308 | 16 | 55 | 0.0 | 0.0 | 0.00 | 0.00 | 0.00 | 73 | 1013.2 |
| 20260510034309 | 16 | 55 | 0.0 | 0.0 | 0.00 | 0.00 | 0.00 | 72 | 1012.9 |
| 20260510033307 | 16 | 55 | 0.0 | 0.0 | 0.00 | 0.00 | 0.00 | 71 | 1012.8 |
| 20260510032307 | 16 | 55 | 0.0 | 0.0 | 0.00 | 0.00 | 0.00 | 69 | 1012.5 |
| 20260510031307 | 17 | 196 | 0.0 | 0.0 | 0.00 | 0.00 | 0.00 | 67 | 1012.3 |
| 20260510030304 | 17 | 196 | 0.0 | 0.0 | 0.00 | 0.00 | 0.00 | 66 | 1012.3 |
| 20260510025306 | 17 | 196 | 0.0 | 0.0 | 0.00 | 0.00 | 0.00 | 63 | 1012.2 |
| 20260510024302 | 18 | 289 | 0.0 | 0.0 | 0.00 | 0.00 | 0.00 | 64 | 1012.1 |
| 20260510023302 | 18 | 217 | 0.0 | 0.0 | 0.00 | 0.00 | 0.00 | 63 | 1012.1 |
| 20260510022744 | 18 | 267 | 0.0 | 0.0 | 0.00 | 0.00 | 0.00 | 58 | 1011.8 |
| 20260510021305 | 19 | 245 | 0.0 | 0.0 | 0.00 | 0.00 | 0.00 | 58 | 1011.6 |
| 20260510020303 | 18 | 245 | 0.0 | 0.0 | 0.00 | 0.00 | 0.00 | 58 | 1011.3 |
| 20260510015306 | 18 | 197 | 0.0 | 0.0 | 0.00 | 0.00 | 0.00 | 61 | 1011.2 |
| 20260510014302 | 19 | 190 | 0.0 | 0.0 | 0.00 | 0.05 | 0.00 | 63 | 1011.0 |
| 20260510013303 | 21 | 34 | 0.0 | 0.0 | 0.00 | 0.13 | 0.00 | 54 | 1010.8 |
| 20260510012300 | 21 | 34 | 0.0 | 0.0 | 0.00 | 0.18 | 0.00 | 51 | 1010.7 |
| 20260510011258 | 22 | 34 | 0.0 | 0.0 | 0.00 | 0.20 | 0.00 | 45 | 1010.6 |
| 20260510010259 | 22 | 34 | 0.0 | 0.0 | 0.00 | 0.23 | 0.00 | 41 | 1010.6 |
| 20260510005258 | 23 | 34 | 0.0 | 0.0 | 0.00 | 0.23 | 0.00 | 40 | 1010.4 |
| 20260510004259 | 23 | 34 | 0.0 | 0.0 | 0.00 | 0.25 | 0.00 | 39 | 1010.1 |
| 20260510003259 | 24 | 34 | 0.0 | 1.6 | 0.00 | 0.25 | 0.00 | 39 | 1010.1 |
| 20260510002732 | 25 | 31 | 0.0 | 1.6 | 0.00 | 0.25 | 0.00 | 37 | 1010.1 |
| 20260510001259 | 25 | 50 | 0.0 | 0.0 | 0.00 | 0.25 | 0.00 | 35 | 1010.0 |
| 20260510000259 | 25 | 41 | 0.0 | 4.8 | 0.00 | 0.25 | 0.00 | 34 | 1010.0 |
| 20260509235257 | 25 | 39 | 0.0 | 3.2 | 0.00 | 0.25 | 0.00 | 35 | 1010.4 |
| 20260509234755 | 25 | 34 | 0.0 | 1.6 | 0.00 | 0.25 | 0.00 | 34 | 1010.4 |
| 20260509232254 | 25 | 79 | 0.0 | 3.2 | 0.00 | 0.25 | 0.00 | 34 | 1010.6 |
| 20260509231728 | 25 | 101 | 0.0 | 6.4 | 0.00 | 0.25 | 0.00 | 34 | 1010.7 |
| 20260509230253 | 25 | 49 | 0.0 | 3.2 | 0.00 | 0.25 | 0.00 | 34 | 1010.6 |
| 20260509225725 | 25 | 120 | 0.0 | 0.0 | 0.00 | 0.25 | 0.00 | 33 | 1010.6 |
| 20260509224251 | 26 | 186 | 1.6 | 4.8 | 0.00 | 0.25 | 0.00 | 33 | 1010.7 |
| 20260509223253 | 26 | 113 | 1.6 | 6.4 | 0.00 | 0.25 | 0.00 | 32 | 1010.9 |
| 20260509222251 | 26 | 108 | 1.6 | 6.4 | 0.00 | 0.25 | 0.00 | 33 | 1010.9 |
| 20260509221249 | 26 | 96 | 0.0 | 4.8 | 0.00 | 0.25 | 0.00 | 34 | 1010.8 |
| 20260509220251 | 26 | 69 | 3.2 | 12.9 | 0.00 | 0.25 | 0.00 | 33 | 1010.8 |
| 20260509215251 | 26 | 109 | 1.6 | 4.8 | 0.00 | 0.25 | 0.00 | 37 | 1010.7 |
| 20260509214249 | 26 | 180 | 3.2 | 9.7 | 0.00 | 0.25 | 0.00 | 32 | 1010.7 |
| 20260509213247 | 26 | 128 | 3.2 | 6.4 | 0.00 | 0.25 | 0.00 | 32 | 1010.7 |
| 20260509212246 | 26 | 161 | 3.2 | 6.4 | 0.00 | 0.25 | 0.00 | 34 | 1011.0 |
| 20260509211243 | 26 | 58 | 1.6 | 6.4 | 0.00 | 0.25 | 0.00 | 31 | 1011.2 |
| 20260509210725 | 26 | 11 | 1.6 | 6.4 | 0.00 | 0.25 | 0.00 | 30 | 1011.3 |
| 20260509205240 | 27 | 35 | 3.2 | 8.0 | 0.00 | 0.25 | 0.00 | 33 | 1011.3 |
| 20260509204239 | 26 | 155 | 3.2 | 8.0 | 0.00 | 0.25 | 0.00 | 31 | 1011.3 |
| 20260509203239 | 26 | 114 | 1.6 | 9.7 | 0.00 | 0.25 | 0.00 | 31 | 1011.3 |
| 20260509202731 | 26 | 112 | 1.6 | 8.0 | 0.00 | 0.25 | 0.00 | 33 | 1011.2 |
| 20260509201240 | 26 | 120 | 3.2 | 11.3 | 0.00 | 0.25 | 0.00 | 30 | 1011.4 |
| 20260509200712 | 26 | 113 | 1.6 | 9.7 | 0.00 | 0.25 | 0.00 | 36 | 1011.5 |
| 20260509195240 | 26 | 250 | 1.6 | 11.3 | 0.00 | 0.25 | 0.00 | 31 | 1011.6 |
| 20260509194240 | 26 | 22 | 1.6 | 3.2 | 0.00 | 0.25 | 0.00 | 35 | 1011.4 |
| 20260509193730 | 26 | 211 | 3.2 | 11.3 | 0.00 | 0.25 | 0.00 | 32 | 1011.6 |
| 20260509192239 | 26 | 340 | 1.6 | 9.7 | 0.00 | 0.25 | 0.00 | 36 | 1011.6 |
| 20260509191237 | 26 | 355 | 1.6 | 6.4 | 0.00 | 0.25 | 0.00 | 33 | 1011.7 |
| 20260509190716 | 26 | 324 | 3.2 | 6.4 | 0.00 | 0.25 | 0.00 | 41 | 1011.6 |
| 20260509185237 | 26 | 291 | 3.2 | 12.9 | 0.00 | 0.25 | 0.00 | 35 | 1011.8 |
| 20260509184237 | 26 | 196 | 4.8 | 9.7 | 0.00 | 0.25 | 0.00 | 35 | 1011.9 |